Stewart International Airport
KSWF : now visible

Airfield :











YOU CAN JOIN US ON...

 
LOGIN :

Register | Disclaimer

   EN    FR    IT 

 









Legend :    VFR   Marginal VFR   IFR   Intensive IFR   Very Intensive IFR
Visi :
Ceiling :
>= 8 km
>= 3000ft
5 to 8 km
1000 to 3000 ft
1500m to 5 km
500 to 1000 ft
800 to 1500m
200 to 500 ft
< 800m
< 200 ft
Symbols :   Thunderstorms  Fog  Heavy snow  Heavy precipitations  Wind > 20 kt






- Airport Elevation : 491 ft
- IATA code : SWF


KSWF - Stewart International

CURRENT METAR :
  • 272045Z 00000KT 10SM SCT020 OVC060 12/07 A3012

EXPIRED METARs :
  • 271945Z 0000KT 10SM SCT020 BKN050 13/06 A3012
  • 271845Z VRB04KT 10SM BKN030 13/07 A3014

TAF KSWF
Valid from the 27 at 20:00 until the 29 at 00:00 UTC


271934Z 2720/2824 VRB04KT P6SM SCT030 BKN100
FM280500 VRB02KT 6SM -RA BR OVC020
FM281600 24005KT P6SM BKN040
FM281900 25006KT P6SM SCT040 AMD NOT SKED
KZBW FIR / North America



MET'MAP, your aeronautical weather chart ! - Copyright ORBIFLY December 2007 - Disclaimer

ORBIFLY MET'MAP TEAM :

Programming & Development : Alexandra Zaïnal
Concept & original design : Baudouin d'Aumeries
Assistance for programming : Marc-Olivier Méhu
Technical & hardware support : Manuel Goepfert

Contact : metmap@orbifly.com




SOURCES & CREDITS :

   NOAA       Earth
Advisory